Regional Weather Roundup
Issued by NWS

Home | Current Version | Previous Version | Graphics & Text | Print | Product List | Glossary On
Versions: 1 2 3 4 5 6 7 8 9 10 11 12 13 14 15 16 17 18 19 20 21 22 23 24 25 26 27 28 29 30 31 32 33 34 35 36 37 38 39 40 41 42 43 44 45 46 47 48 49 50
000
ASUS43 KTOP 221359
RWRKS

WEATHER ROUNDUP FOR KANSAS
NATIONAL WEATHER SERVICE GOODLAND KS
900 AM CDT TUE AUG 22 2017

NOTE:  "FAIR" INDICATES FEW OR NO CLOUDS BELOW 12,000 FEET WITH NO
SIGNIFICANT WEATHER AND/OR OBSTRUCTIONS TO VISIBILITY.

KSZ001>006-013>018-027>032-041>047-221500-
NORTHWEST KANSAS

CITY           SKY/WX    TMP DP  RH WIND       PRES   REMARKS
GOODLAND       CLOUDY    64  62  93 NE10      30.29R
HAYS           MOSUNNY   70  63  78 NE17      30.19R
HILL CITY      MOSUNNY   68  64  87 NE16      30.22R
RUSSELL        SUNNY     70  62  76 NE18      30.16R
$$

KSZ061>065-074>080-084>089-221500-
SOUTHWEST KANSAS

CITY           SKY/WX    TMP DP  RH WIND       PRES   REMARKS
DODGE CITY     CLOUDY    68  62  81 N17G26    30.16R
ELKHART          N/A     65  65 100 N15         N/A
GARDEN CITY    CLOUDY    67  61  81 NE20G28   30.20R
GREAT BEND     CLOUDY    70  65  84 NE18G25   30.15R
LIBERAL        CLOUDY    68  65  90 NE17      30.18R
$$

KSZ066>073-081>083-090>101-221500-
SOUTHEAST KANSAS

CITY           SKY/WX    TMP DP  RH WIND       PRES   REMARKS
CHANUTE        CLOUDY    73  68  84 SE7       30.06S
COFFEYVILLE    CLOUDY    78  72  81 E12       30.05R
HUTCHINSON     CLOUDY    69  68  96 N13G25    30.08R
MEDICINE LODGE   N/A     74  68  81 N15G24    30.05R
NEWTON         PTSUNNY   72  67  84 NE14G21   30.08R
PARSONS        PTSUNNY   73  68  84 CALM      30.07S
WICHITA INTL   MOSUNNY   79  71  76 CALM      30.04R
WICHITA JABRA  SUNNY     78  74  87 E3        30.04R
WICHITA MCCONL SUNNY     78  69  73 CALM      30.04R
WINFIELD       SUNNY     81  71  71 W5        30.03F
$$

KSZ007>012-019>026-033>040-048>060-102>105-221500-
NORTHEAST KANSAS

CITY           SKY/WX    TMP DP  RH WIND       PRES   REMARKS
CONCORDIA      MOSUNNY   68  65  90 N13       30.17R
EMPORIA        CLOUDY    69  68  96 NE9       30.08R
LAWRENCE       CLOUDY    71  68  90 NW6       30.09R
MANHATTAN      MOSUNNY   71  67  87 N9        30.11R
OLATHE IND     CLOUDY    68  66  93 NE3       30.09R
OLATHE EXE     CLOUDY    67  67 100 CALM      30.08S
SALINA         CLOUDY    73  64  73 NE16      30.12R
TOPEKA BILLARD CLOUDY    69  68  96 N8        30.09S
TOPEKA FORBES  PTSUNNY   71  68  90 N7        30.10R
$$




USA.gov is the U.S. government's official web portal to all federal, state and local government web resources and services.